Starlink 32421

operational
NORAD ID: 61628 Int'l Des: 2024-191 Owner: SPXS Country: US Constellation: starlink
LEOCIRCULAR

Über Starlink 32421

Beschreibung wird geladen...

Live-Position

3D-Globus wird geladen...

Nächste Überflüge

Höhenverlauf

Altitude vs Time

uPlot chart will show altitude changes over time

Zweizeiliger Elementsatz

1 61628U 24191H 25259.16372482 .00003113 00000-0 12266-3 0 9994
2 61628 43.0042 60.2428 0001262 269.0993 90.9714 15.27568988 50845
Epoch: 16. Sept. 2025 • Age: 9 hours

Aktueller Status

Höhe 486.6 km
Geschwindigkeit 7.62 km/s
Subsatellitenpunkt -18.43°S, 156.87°W
Startdatum 23. Okt. 2024
Alter 0.8 years
Typ internet

Technische Details

Klassifizierung Payload
Masse 730.00 kg
Trockenmasse 700.00 kg
Gesamtmasse 730.00 kg
Länge 0.30 m
Durchmesser 4.10 m
Spannweite 29.00 m
Form Box + pan
Hersteller SPXS
Bus-Typ Starlink V2M
Phasenstatus In Orbit
Besitzer/Staat SPXS/US

Große Konstellationen

Loading constellations...